Voltar ao catálogo

SL-8 R/B

AtivoPO
NORAD 28421·ROCKET BODY·🇷🇺 Russia

Lançado Sep 23, 2004 de Plesetsk Cosmodrome

Loading…

Próximas Passagens (próximas 24 horas)

TLE

AtualizadoSource: Space-Track

Época: Sep 14, 2026, 08:57 UTC

1 28421U 04037C   26257.37319396 -.00000081  00000-0 -64568-3 0  9997
2 28421  82.4781 280.1166 0022254 115.9878 255.4610 12.44406877998032

Acompanhe SL-8 R/B em tempo real com AllMySat

Download on the App Store